Location: Cheyres
(46.8153°N, 6.7877°E)
Time: 09:44:54
(UTC+00:00)

Cosmos 990 Rocket - Pass Details

Date: 27 September 2021
Orbit: 746 x 769 km, 74.0° (Epoch: 21 October)

Event Time Altitude Azimuth Distance (km) Brightness Sun altitude
Rises 17:49:39 0° 139° (SE) 3,186 6.8 -5.8°
Reaches altitude 10° 17:54:49 10° 95° (E) 2,278 5.8 -6.7°
Maximum altitude 17:55:08 10° 91° (E) 2,275 5.8 -6.8°
Drops below altitude 10° 17:55:28 10° 87° (E) 2,280 5.8 -6.8°
Sets 18:00:39 0° 43° (NE) 3,222 6.9 -7.7°
